Location: Borea
(45.6167°N, 23.0167°E)
Time: 11:54:39
(UTC+00:00)

Cosmos 2219 Rocket - Pass Details

Date: 03 February 2023
Orbit: 826 x 848 km, 71.0° (Epoch: 30 March)

Event Time Altitude Azimuth Distance (km) Brightness Sun altitude
Rises 16:21:59 0° 153° (SSE) 3,351 5.2 -8.3°
Reaches altitude 10° 16:25:28 10° 130° (SE) 2,425 4.3 -8.9°
Maximum altitude 16:28:28 15° 97° (E) 2,103 3.7 -9.4°
Enters shadow 16:30:33 12° 73° (ENE) 2,274 3.8 -9.8°
